Time,TemperatureF,DewpointF,PressureIn,WindDirection,WindDirectionDegrees,WindSpeedMPH,WindSpeedGustMPH,Humidity,HourlyPrecipIn,Conditions,Clouds,dailyrainin,SoftwareType,DateUTC
2013-05-02 00:01:00,39.0,15.0,-100.00,NW,310,9.0,12.0,38,-99.99,,,-99.99,,2013-05-02 06:01:00,
2013-05-02 00:12:00,39.0,16.0,-100.00,NW,305,10.0,13.0,38,-99.99,,,-99.99,,2013-05-02 06:12:00,
2013-05-02 00:21:00,38.0,16.0,-100.00,NW,320,11.0,14.0,39,-99.99,,,-99.99,,2013-05-02 06:21:00,
2013-05-02 00:31:00,38.0,16.0,-100.00,NW,315,12.0,16.0,39,-99.99,,,-99.99,,2013-05-02 06:31:00,
2013-05-02 00:42:00,37.0,15.0,-100.00,NW,325,11.0,17.0,39,-99.99,,,-99.99,,2013-05-02 06:42:00,
2013-05-02 00:52:00,37.0,15.0,-100.00,NNW,340,11.0,17.0,39,-99.99,,,-99.99,,2013-05-02 06:52:00,
2013-05-02 01:01:00,37.0,14.0,-100.00,NW,325,10.0,16.0,39,-99.99,,,-99.99,,2013-05-02 07:01:00,
2013-05-02 01:11:00,36.0,15.0,-100.00,NNW,335,11.0,13.0,40,-99.99,,,-99.99,,2013-05-02 07:11:00,
2013-05-02 01:21:00,36.0,14.0,-100.00,NNW,340,8.0,12.0,41,-99.99,,,-99.99,,2013-05-02 07:21:00,
2013-05-02 01:31:00,35.0,15.0,-100.00,NNW,330,9.0,16.0,41,-99.99,,,-99.99,,2013-05-02 07:31:00,
2013-05-02 01:41:00,36.0,15.0,-100.00,NNW,335,5.0,16.0,41,-99.99,,,-99.99,,2013-05-02 07:41:00,
2013-05-02 01:52:00,36.0,15.0,-100.00,North,0,6.0,11.0,41,-99.99,,,-99.99,,2013-05-02 07:52:00,
2013-05-02 02:02:00,35.0,15.0,-100.00,SE,135,2.0,11.0,41,-99.99,,,-99.99,,2013-05-02 08:02:00,
2013-05-02 02:11:00,34.0,15.0,-100.00,SE,145,3.0,7.0,44,-99.99,,,-99.99,,2013-05-02 08:11:00,
2013-05-02 02:21:00,33.0,15.0,-100.00,ESE,120,2.0,6.0,46,-99.99,,,-99.99,,2013-05-02 08:21:00,
2013-05-02 02:32:00,33.0,16.0,-100.00,SSE,150,2.0,4.0,48,-99.99,,,-99.99,,2013-05-02 08:32:00,
2013-05-02 02:42:00,32.0,16.0,-100.00,NNE,15,2.0,4.0,50,-99.99,,,-99.99,,2013-05-02 08:42:00,
2013-05-02 02:52:00,32.0,17.0,-100.00,ENE,60,3.0,4.0,53,-99.99,,,-99.99,,2013-05-02 08:52:00,
2013-05-02 03:02:00,31.0,17.0,-100.00,NNE,15,2.0,4.0,54,-99.99,,,-99.99,,2013-05-02 09:02:00,
2013-05-02 03:11:00,31.0,17.0,-100.00,NE,40,3.0,4.0,56,-99.99,,,-99.99,,2013-05-02 09:11:00,
2013-05-02 03:21:00,30.0,18.0,-100.00,NNE,30,2.0,5.0,59,-99.99,,,-99.99,,2013-05-02 09:21:00,
2013-05-02 03:32:00,30.0,18.0,-100.00,East,85,0.0,3.0,60,-99.99,,,-99.99,,2013-05-02 09:32:00,
2013-05-02 03:42:00,30.0,18.0,-100.00,NNE,20,0.0,0.0,61,-99.99,,,-99.99,,2013-05-02 09:42:00,
2013-05-02 03:52:00,30.0,19.0,-100.00,NE,55,4.0,4.0,64,-99.99,,,-99.99,,2013-05-02 09:52:00,
2013-05-02 04:02:00,29.0,19.0,-100.00,East,95,2.0,4.0,65,-99.99,,,-99.99,,2013-05-02 10:02:00,
2013-05-02 04:12:00,29.0,19.0,-100.00,ENE,75,3.0,4.0,65,-99.99,,,-99.99,,2013-05-02 10:12:00,
2013-05-02 04:22:00,29.0,20.0,-100.00,NE,35,0.0,3.0,66,-99.99,,,-99.99,,2013-05-02 10:22:00,
2013-05-02 04:32:00,29.0,20.0,-100.00,East,85,2.0,3.0,67,-99.99,,,-99.99,,2013-05-02 10:32:00,
2013-05-02 04:42:00,29.0,20.0,-100.00,ESE,105,3.0,4.0,68,-99.99,,,-99.99,,2013-05-02 10:42:00,
2013-05-02 04:52:00,29.0,20.0,-100.00,ENE,75,2.0,4.0,69,-99.99,,,-99.99,,2013-05-02 10:52:00,
2013-05-02 05:02:00,29.0,20.0,-100.00,East,85,0.0,3.0,70,-99.99,,,-99.99,,2013-05-02 11:02:00,
2013-05-02 05:11:00,29.0,20.0,-100.00,South,175,0.0,2.0,70,-99.99,,,-99.99,,2013-05-02 11:11:00,
2013-05-02 05:21:00,28.0,20.0,-100.00,NNE,20,2.0,3.0,72,-99.99,,,-99.99,,2013-05-02 11:21:00,
2013-05-02 05:32:00,28.0,20.0,-100.00,ENE,70,2.0,4.0,72,-99.99,,,-99.99,,2013-05-02 11:32:00,
2013-05-02 05:41:00,27.0,20.0,-100.00,ENE,75,1.0,3.0,73,-99.99,,,-99.99,,2013-05-02 11:41:00,
2013-05-02 05:52:00,28.0,20.0,-100.00,East,90,2.0,4.0,74,-99.99,,,-99.99,,2013-05-02 11:52:00,
2013-05-02 06:01:00,28.0,21.0,-100.00,NE,50,1.0,4.0,74,-99.99,,,-99.99,,2013-05-02 12:01:00,
2013-05-02 06:11:00,28.0,21.0,-100.00,East,90,4.0,5.0,74,-99.99,,,-99.99,,2013-05-02 12:11:00,
2013-05-02 06:21:00,28.0,21.0,-100.00,East,85,4.0,6.0,75,-99.99,,,-99.99,,2013-05-02 12:21:00,
2013-05-02 06:32:00,27.0,21.0,-100.00,East,80,4.0,7.0,76,-99.99,,,-99.99,,2013-05-02 12:32:00,
2013-05-02 06:42:00,27.0,21.0,-100.00,East,95,4.0,6.0,76,-99.99,,,-99.99,,2013-05-02 12:42:00,
2013-05-02 06:52:00,28.0,21.0,-100.00,East,100,4.0,6.0,76,-99.99,,,-99.99,,2013-05-02 12:52:00,
2013-05-02 07:01:00,29.0,22.0,-100.00,ESE,110,4.0,6.0,75,-99.99,,,-99.99,,2013-05-02 13:01:00,
2013-05-02 07:11:00,29.0,22.0,-100.00,East,100,6.0,7.0,74,-99.99,,,-99.99,,2013-05-02 13:11:00,
2013-05-02 07:21:00,29.0,22.0,-100.00,ESE,105,4.0,7.0,72,-99.99,,,-99.99,,2013-05-02 13:21:00,
2013-05-02 07:31:00,30.0,22.0,-100.00,East,95,4.0,6.0,70,-99.99,,,-99.99,,2013-05-02 13:31:00,
2013-05-02 07:41:00,31.0,23.0,-100.00,ESE,115,2.0,6.0,69,-99.99,,,-99.99,,2013-05-02 13:41:00,
2013-05-02 07:52:00,33.0,23.0,-100.00,ESE,110,3.0,4.0,66,-99.99,,,-99.99,,2013-05-02 13:52:00,
2013-05-02 08:02:00,33.0,22.0,-100.00,SE,130,3.0,4.0,64,-99.99,,,-99.99,,2013-05-02 14:02:00,
2013-05-02 08:11:00,34.0,22.0,-100.00,ESE,105,3.0,5.0,61,-99.99,,,-99.99,,2013-05-02 14:11:00,
2013-05-02 08:21:00,35.0,22.0,-100.00,East,80,3.0,6.0,58,-99.99,,,-99.99,,2013-05-02 14:21:00,
2013-05-02 08:31:00,37.0,23.0,-100.00,SSE,160,1.0,4.0,56,-99.99,,,-99.99,,2013-05-02 14:31:00,
2013-05-02 08:42:00,38.0,22.0,-100.00,ENE,70,0.0,3.0,53,-99.99,,,-99.99,,2013-05-02 14:42:00,
2013-05-02 08:52:00,39.0,21.0,-100.00,ESE,115,0.0,4.0,49,-99.99,,,-99.99,,2013-05-02 14:52:00,
2013-05-02 09:02:00,40.0,22.0,-100.00,SE,135,2.0,4.0,47,-99.99,,,-99.99,,2013-05-02 15:02:00,
2013-05-02 09:12:00,41.0,22.0,-100.00,SSW,195,2.0,6.0,46,-99.99,,,-99.99,,2013-05-02 15:12:00,
2013-05-02 09:21:00,41.0,21.0,-100.00,East,100,2.0,6.0,44,-99.99,,,-99.99,,2013-05-02 15:21:00,
2013-05-02 09:32:00,41.0,20.0,-100.00,SE,130,4.0,6.0,42,-99.99,,,-99.99,,2013-05-02 15:32:00,
2013-05-02 09:43:00,41.0,20.0,-100.00,SSE,155,2.0,7.0,41,-99.99,,,-99.99,,2013-05-02 15:43:00,
2013-05-02 10:02:00,42.0,19.0,-100.00,East,90,4.0,6.0,38,-99.99,,,-99.99,,2013-05-02 16:02:00,
2013-05-02 10:13:00,44.0,20.0,-100.00,SSE,150,4.0,7.0,38,-99.99,,,-99.99,,2013-05-02 16:13:00,
2013-05-02 10:22:00,44.0,20.0,-100.00,ESE,110,1.0,7.0,37,-99.99,,,-99.99,,2013-05-02 16:22:00,
2013-05-02 10:32:00,44.0,20.0,-100.00,ESE,110,3.0,9.0,37,-99.99,,,-99.99,,2013-05-02 16:32:00,
2013-05-02 10:43:00,44.0,20.0,-100.00,South,175,1.0,7.0,37,-99.99,,,-99.99,,2013-05-02 16:43:00,
2013-05-02 10:52:00,47.0,21.0,-100.00,South,180,2.0,5.0,36,-99.99,,,-99.99,,2013-05-02 16:52:00,
2013-05-02 11:02:00,47.0,20.0,-100.00,East,90,2.0,5.0,33,-99.99,,,-99.99,,2013-05-02 17:02:00,
2013-05-02 11:12:00,47.0,19.0,-100.00,SSW,200,4.0,8.0,32,-99.99,,,-99.99,,2013-05-02 17:12:00,
2013-05-02 11:22:00,46.0,18.0,-100.00,North,0,3.0,6.0,31,-99.99,,,-99.99,,2013-05-02 17:22:00,
2013-05-02 11:31:00,47.0,19.0,-100.00,SSE,165,4.0,6.0,31,-99.99,,,-99.99,,2013-05-02 17:31:00,
2013-05-02 11:42:00,48.0,19.0,-100.00,SW,230,5.0,9.0,31,-99.99,,,-99.99,,2013-05-02 17:42:00,
2013-05-02 11:51:00,47.0,18.0,-100.00,NW,325,3.0,7.0,31,-99.99,,,-99.99,,2013-05-02 17:51:00,
2013-05-02 12:01:00,49.0,19.0,-100.00,SSW,195,4.0,6.0,30,-99.99,,,-99.99,,2013-05-02 18:01:00,
2013-05-02 12:11:00,50.0,20.0,-100.00,SSW,210,2.0,6.0,29,-99.99,,,-99.99,,2013-05-02 18:11:00,
2013-05-02 12:21:00,50.0,19.0,-100.00,ESE,110,4.0,7.0,28,-99.99,,,-99.99,,2013-05-02 18:21:00,
2013-05-02 12:31:00,49.0,17.0,-100.00,East,85,5.0,9.0,28,-99.99,,,-99.99,,2013-05-02 18:31:00,
2013-05-02 12:41:00,49.0,18.0,-100.00,ESE,115,5.0,8.0,28,-99.99,,,-99.99,,2013-05-02 18:41:00,
2013-05-02 12:51:00,50.0,19.0,-100.00,SE,140,7.0,10.0,27,-99.99,,,-99.99,,2013-05-02 18:51:00,
2013-05-02 13:01:00,51.0,19.0,-100.00,SE,140,3.0,11.0,27,-99.99,,,-99.99,,2013-05-02 19:01:00,
2013-05-02 13:11:00,50.0,18.0,-100.00,ESE,120,7.0,11.0,27,-99.99,,,-99.99,,2013-05-02 19:11:00,
2013-05-02 13:21:00,51.0,18.0,-100.00,SW,225,3.0,6.0,26,-99.99,,,-99.99,,2013-05-02 19:21:00,
2013-05-02 13:31:00,51.0,18.0,-100.00,SW,235,7.0,10.0,26,-99.99,,,-99.99,,2013-05-02 19:31:00,
2013-05-02 13:41:00,51.0,18.0,-100.00,SSW,205,3.0,9.0,26,-99.99,,,-99.99,,2013-05-02 19:41:00,
2013-05-02 13:52:00,52.0,18.0,-100.00,SSE,160,4.0,10.0,26,-99.99,,,-99.99,,2013-05-02 19:52:00,
2013-05-02 14:02:00,53.0,18.0,-100.00,SSE,150,4.0,10.0,25,-99.99,,,-99.99,,2013-05-02 20:02:00,
2013-05-02 14:11:00,53.0,17.0,-100.00,WNW,285,4.0,8.0,24,-99.99,,,-99.99,,2013-05-02 20:11:00,
2013-05-02 14:22:00,53.0,17.0,-100.00,WSW,250,4.0,7.0,24,-99.99,,,-99.99,,2013-05-02 20:22:00,
2013-05-02 14:32:00,52.0,17.0,-100.00,WNW,300,5.0,15.0,24,-99.99,,,-99.99,,2013-05-02 20:32:00,
2013-05-02 14:41:00,54.0,17.0,-100.00,SSE,155,4.0,8.0,23,-99.99,,,-99.99,,2013-05-02 20:41:00,
2013-05-02 14:52:00,55.0,18.0,-100.00,North,0,2.0,9.0,22,-99.99,,,-99.99,,2013-05-02 20:52:00,
2013-05-02 15:01:00,55.0,16.0,-100.00,North,0,10.0,23.0,21,-99.99,,,-99.99,,2013-05-02 21:01:00,
2013-05-02 15:11:00,55.0,16.0,-100.00,North,0,9.0,16.0,20,-99.99,,,-99.99,,2013-05-02 21:11:00,
2013-05-02 15:21:00,55.0,15.0,-100.00,NW,305,4.0,9.0,20,-99.99,,,-99.99,,2013-05-02 21:21:00,
2013-05-02 15:33:00,55.0,15.0,-100.00,South,190,4.0,10.0,20,-99.99,,,-99.99,,2013-05-02 21:33:00,
2013-05-02 15:42:00,55.0,16.0,-100.00,NW,315,12.0,22.0,20,-99.99,,,-99.99,,2013-05-02 21:42:00,
2013-05-02 15:53:00,55.0,15.0,-100.00,West,280,7.0,15.0,20,-99.99,,,-99.99,,2013-05-02 21:53:00,
2013-05-02 16:02:00,55.0,15.0,-100.00,NW,320,11.0,17.0,20,-99.99,,,-99.99,,2013-05-02 22:02:00,
2013-05-02 16:12:00,55.0,15.0,-100.00,NW,310,12.0,17.0,20,-99.99,,,-99.99,,2013-05-02 22:12:00,
2013-05-02 16:22:00,55.0,15.0,-100.00,NW,315,12.0,18.0,20,-99.99,,,-99.99,,2013-05-02 22:22:00,
2013-05-02 16:32:00,55.0,15.0,-100.00,West,280,9.0,19.0,20,-99.99,,,-99.99,,2013-05-02 22:32:00,
2013-05-02 16:42:00,55.0,16.0,-100.00,WNW,285,12.0,18.0,20,-99.99,,,-99.99,,2013-05-02 22:42:00,
2013-05-02 16:52:00,56.0,16.0,-100.00,WNW,295,8.0,19.0,20,-99.99,,,-99.99,,2013-05-02 22:52:00,
2013-05-02 17:02:00,55.0,15.0,-100.00,WNW,285,14.0,20.0,20,-99.99,,,-99.99,,2013-05-02 23:02:00,
2013-05-02 17:11:00,56.0,15.0,-100.00,WNW,300,12.0,19.0,20,-99.99,,,-99.99,,2013-05-02 23:11:00,
2013-05-02 17:22:00,57.0,16.0,-100.00,NW,305,12.0,17.0,20,-99.99,,,-99.99,,2013-05-02 23:22:00,
2013-05-02 17:32:00,56.0,16.0,-100.00,NW,305,11.0,20.0,20,-99.99,,,-99.99,,2013-05-02 23:32:00,
2013-05-02 17:42:00,56.0,15.0,-100.00,NW,315,10.0,18.0,19,-99.99,,,-99.99,,2013-05-02 23:42:00,
2013-05-02 17:51:00,56.0,15.0,-100.00,NW,305,11.0,14.0,19,-99.99,,,-99.99,,2013-05-02 23:51:00,
2013-05-02 18:01:00,56.0,15.0,-100.00,WNW,300,11.0,18.0,19,-99.99,,,-99.99,,2013-05-03 00:01:00,
2013-05-02 18:11:00,56.0,15.0,-100.00,NW,305,13.0,21.0,19,-99.99,,,-99.99,,2013-05-03 00:11:00,
2013-05-02 18:21:00,56.0,15.0,-100.00,NW,320,12.0,17.0,19,-99.99,,,-99.99,,2013-05-03 00:21:00,
2013-05-02 18:31:00,56.0,15.0,-100.00,NW,315,10.0,17.0,19,-99.99,,,-99.99,,2013-05-03 00:31:00,
2013-05-02 18:41:00,56.0,15.0,-100.00,NW,310,9.0,16.0,19,-99.99,,,-99.99,,2013-05-03 00:41:00,
2013-05-02 18:52:00,55.0,14.0,-100.00,WNW,300,11.0,16.0,19,-99.99,,,-99.99,,2013-05-03 00:52:00,
2013-05-02 19:01:00,55.0,14.0,-100.00,NW,305,10.0,16.0,19,-99.99,,,-99.99,,2013-05-03 01:01:00,
2013-05-02 19:11:00,55.0,14.0,-100.00,NW,310,7.0,16.0,19,-99.99,,,-99.99,,2013-05-03 01:11:00,
2013-05-02 19:21:00,55.0,14.0,-100.00,NW,320,8.0,16.0,19,-99.99,,,-99.99,,2013-05-03 01:21:00,
2013-05-02 19:31:00,54.0,14.0,-100.00,NNW,340,9.0,15.0,20,-99.99,,,-99.99,,2013-05-03 01:31:00,
2013-05-02 19:41:00,54.0,14.0,-100.00,NNW,340,8.0,12.0,20,-99.99,,,-99.99,,2013-05-03 01:41:00,
2013-05-02 19:52:00,53.0,14.0,-100.00,North,0,7.0,9.0,20,-99.99,,,-99.99,,2013-05-03 01:52:00,
2013-05-02 20:01:00,53.0,14.0,-100.00,North,350,6.0,7.0,20,-99.99,,,-99.99,,2013-05-03 02:01:00,
2013-05-02 20:11:00,52.0,13.0,-100.00,North,5,6.0,7.0,21,-99.99,,,-99.99,,2013-05-03 02:11:00,
2013-05-02 20:21:00,50.0,14.0,-100.00,NE,35,3.0,4.0,22,-99.99,,,-99.99,,2013-05-03 02:21:00,
2013-05-02 20:31:00,49.0,13.0,-100.00,NNE,25,4.0,5.0,23,-99.99,,,-99.99,,2013-05-03 02:31:00,
2013-05-02 20:41:00,49.0,13.0,-100.00,NNE,25,5.0,6.0,24,-99.99,,,-99.99,,2013-05-03 02:41:00,
2013-05-02 20:52:00,47.0,13.0,-100.00,NE,40,4.0,5.0,24,-99.99,,,-99.99,,2013-05-03 02:52:00,
2013-05-02 21:01:00,46.0,13.0,-100.00,South,190,1.0,4.0,26,-99.99,,,-99.99,,2013-05-03 03:01:00,
2013-05-02 21:11:00,45.0,15.0,-100.00,SE,125,1.0,2.0,29,-99.99,,,-99.99,,2013-05-03 03:11:00,
2013-05-02 21:21:00,44.0,17.0,-100.00,East,95,1.0,4.0,33,-99.99,,,-99.99,,2013-05-03 03:21:00,
2013-05-02 21:33:00,45.0,19.0,-100.00,WNW,285,3.0,6.0,35,-99.99,,,-99.99,,2013-05-03 03:33:00,
2013-05-02 21:42:00,43.0,19.0,-100.00,NNE,30,2.0,4.0,38,-99.99,,,-99.99,,2013-05-03 03:42:00,
2013-05-02 21:52:00,42.0,20.0,-100.00,NE,35,2.0,3.0,41,-99.99,,,-99.99,,2013-05-03 03:52:00,
2013-05-02 22:02:00,42.0,20.0,-100.00,NE,35,4.0,4.0,41,-99.99,,,-99.99,,2013-05-03 04:02:00,
2013-05-02 22:12:00,41.0,20.0,-100.00,SSE,160,5.0,6.0,42,-99.99,,,-99.99,,2013-05-03 04:12:00,
2013-05-02 22:22:00,40.0,20.0,-100.00,SSE,160,6.0,7.0,43,-99.99,,,-99.99,,2013-05-03 04:22:00,
2013-05-02 22:32:00,40.0,19.0,-100.00,SE,125,4.0,7.0,43,-99.99,,,-99.99,,2013-05-03 04:32:00,
2013-05-02 22:42:00,39.0,19.0,-100.00,SE,125,7.0,9.0,43,-99.99,,,-99.99,,2013-05-03 04:42:00,
2013-05-02 22:52:00,40.0,19.0,-100.00,East,95,4.0,7.0,43,-99.99,,,-99.99,,2013-05-03 04:52:00,
2013-05-02 23:02:00,40.0,19.0,-100.00,ENE,60,3.0,7.0,43,-99.99,,,-99.99,,2013-05-03 05:02:00,
2013-05-02 23:11:00,39.0,19.0,-100.00,ENE,75,2.0,6.0,43,-99.99,,,-99.99,,2013-05-03 05:11:00,
2013-05-02 23:21:00,38.0,19.0,-100.00,East,85,4.0,5.0,46,-99.99,,,-99.99,,2013-05-03 05:21:00,
2013-05-02 23:32:00,38.0,20.0,-100.00,ENE,75,1.0,5.0,47,-99.99,,,-99.99,,2013-05-03 05:32:00,
2013-05-02 23:42:00,37.0,20.0,-100.00,ESE,115,2.0,4.0,48,-99.99,,,-99.99,,2013-05-03 05:42:00,
2013-05-02 23:52:00,37.0,21.0,-100.00,East,100,2.0,4.0,52,-99.99,,,-99.99,,2013-05-03 05:52:00,